Tracking 33197 objects as of 18-Feb-2026
HD Live streaming from Space Station
objects crossing your sky now

STARLINK-3397

Track STARLINK-3397 now!
10-day predictions
STARLINK-3397 is classified as:


NORAD ID: 51115
Int'l Code: 2022-005M
Perigee: 546.0 km
Apogee: 547.9 km
Inclination: 53.2 °
Period: 95.4 minutes
Semi major axis: 6917 km
RCS: Unknown
Launch date: January 19, 2022
Source: United States (US)
Launch site: AIR FORCE EASTERN TEST RANGE (AFETR)
Your satellite tracking list
Your tracking list is empty




NASA's NSSDC Master Catalog

Two Line Element Set (TLE):
1 51115U 22005M   26049.27231476 -.00000784  00000-0 -31190-4 0  9994
2 51115  53.2196  16.2908 0001376  91.6428 268.4722 15.08833494225942
Source of the keplerian elements: AFSPC